Weather History for KIRK - January, 2014

Change the Weather History Date:

Wednesday, January 22, 2014

  Actual Average Record
Temperature  
Mean Temperature 15 °F 26 °F  
Max Temperature 29 °F 36 °F 69 °F (1967)
Min Temperature 0 °F 17 °F -20 °F (1930)
Degree Days  
Heating Degree Days 50 39  
Month to date heating degree days 784 858  
Since 1 July heating degree days 3275 3201  
Cooling Degree Days 0 0  
Month to date cooling degree days 0 0  
Year to date cooling degree days 0 0  
Moisture  
Dew Point 6 °F    
Average Humidity 60    
Maximum Humidity 73    
Minimum Humidity 46    
Precipitation  
Precipitation T in 0.04 in 1.68 in (1929)
Month to date precipitation 0.72 0.76  
Year to date precipitation 0.72 0.76  
Sea Level Pressure  
Sea Level Pressure 30.18 in    
Wind  
Wind Speed 13 mph (WNW)    
Max Wind Speed 26 mph    
Max Gust Speed 39 mph    
Visibility 9 miles    
Events Snow    
T = Trace of Precipitation, MM = Missing Value Source: NWS Daily Summary

Daily Weather History Graph

Daily Weather History Graph

Search for Another Location

Airport or City:

Trip Planner

Search our weather history database for the weather conditions in past years. The results will help you decide how hot, cold, wet, or windy it might be!

Date:

Astronomy

Jan. 22, 2014 Rise Set
Actual Time 7:26 AM CST 5:17 PM CST
Civil Twilight 6:57 AM CST 5:46 PM CST
Nautical Twilight 6:24 AM CST 6:19 PM CST
Astronomical Twilight 5:52 AM CST 6:51 PM CST
Moon 11:50 PM CST (1/22) 10:27 AM CST (1/22)
Length of Visible Light 10h 49m
Length of Day
9h 50m
Waning Gibbous, 65% of the Moon is Illuminated
Jan 22
Waning Gibbous
Jan 23
Last Quarter
Jan 30
New
Feb 6
First Quarter
Feb 14
Full

Hourly Weather History & Observations

Time (CST) Temp. Windchill Dew Point Humidity Pressure Visibility Wind Dir Wind Speed Gust Speed Precip Events Conditions
12:55 AM 15.1 °F 5.2 °F 6.1 °F 68% 30.15 in 10.0 mi South 6.9 mph - N/A   Overcast
1:55 AM 16.0 °F 6.3 °F 7.0 °F 68% 30.12 in 10.0 mi South 6.9 mph - N/A   Overcast
2:55 AM 17.1 °F 5.0 °F 3.9 °F 56% 30.09 in 10.0 mi SSW 10.4 mph - N/A   Overcast
3:55 AM 18.0 °F 7.7 °F 5.0 °F 57% 30.07 in 10.0 mi SSW 8.1 mph - N/A   Overcast
4:55 AM 19.0 °F 10.0 °F 6.1 °F 57% 30.06 in 10.0 mi SW 6.9 mph - N/A   Overcast
5:55 AM 19.9 °F 12.1 °F 6.1 °F 55% 30.06 in 10.0 mi WSW 5.8 mph - N/A   Overcast
6:55 AM 19.9 °F 8.6 °F 8.1 °F 60% 30.07 in 10.0 mi West 10.4 mph - N/A   Overcast
7:06 AM 21.0 °F 9.9 °F 8.1 °F 57% 30.02 in 10.0 mi WNW 10.4 mph - N/A   Overcast
7:50 AM 21.2 °F 6.0 °F 10.4 °F 63% 30.03 in 10.0 mi NNW 19.6 mph 27.6 mph N/A   Overcast
7:55 AM 21.0 °F 9.3 °F 10.0 °F 63% 30.09 in 10.0 mi NW 11.5 mph 27.6 mph N/A   Overcast
8:55 AM 19.9 °F 7.9 °F 10.0 °F 65% 30.12 in 3.0 mi NW 11.5 mph 27.6 mph 0.00 in Snow Light Snow
9:55 AM 23.0 °F 11.1 °F 10.0 °F 58% 30.14 in 10.0 mi NW 12.7 mph 21.9 mph 0.00 in   Overcast
10:55 AM 24.1 °F 12.5 °F 10.0 °F 55% 30.15 in 10.0 mi NW 12.7 mph - N/A   Clear
11:55 AM 26.1 °F 16.2 °F 10.0 °F 51% 30.10 in 10.0 mi West 10.4 mph - N/A   Clear
12:55 PM 28.9 °F 19.2 °F 12.0 °F 49% 30.12 in 10.0 mi NW 11.5 mph 25.3 mph N/A   Overcast
1:55 PM 27.0 °F 13.9 °F 10.9 °F 51% 30.12 in 10.0 mi West 18.4 mph 25.3 mph N/A   Overcast
2:55 PM 27.0 °F 13.9 °F 9.0 °F 47% 30.13 in 10.0 mi WNW 18.4 mph 25.3 mph N/A   Overcast
3:55 PM 25.0 °F 10.6 °F 9.0 °F 51% 30.17 in 10.0 mi WNW 20.7 mph 29.9 mph N/A   Overcast
4:55 PM 21.0 °F 6.6 °F 12.0 °F 68% 30.21 in 5.0 mi NNW 17.3 mph 26.5 mph 0.00 in Snow Light Snow
5:55 PM 19.9 °F 8.6 °F 9.0 °F 62% 30.23 in 10.0 mi NW 10.4 mph - 0.00 in   Mostly Cloudy
6:55 PM 17.1 °F 0.1 °F 8.1 °F 68% 30.28 in 6.0 mi NNW 20.7 mph 28.8 mph 0.00 in Snow Light Snow
7:11 PM 15.1 °F -3.3 °F 3.9 °F 61% 30.24 in 9.0 mi NW 23.0 mph 34.5 mph 0.00 in   Mostly Cloudy
7:55 PM 10.9 °F -6.5 °F -2.9 °F 54% 30.34 in 10.0 mi NNW 17.3 mph 33.4 mph 0.00 in   Clear
8:55 PM 7.0 °F -10.4 °F -5.1 °F 58% 30.39 in 10.0 mi NW 15.0 mph 27.6 mph N/A   Clear
9:55 PM 5.0 °F -15.7 °F -7.1 °F 58% 30.43 in 10.0 mi NNW 20.7 mph 29.9 mph N/A   Clear
10:55 PM 1.9 °F -16.9 °F -8.0 °F 63% 30.48 in 10.0 mi NNW 15.0 mph 24.2 mph N/A   Clear
11:55 PM -0.0 °F -17.1 °F -9.9 °F 63% 30.51 in 10.0 mi North 11.5 mph - N/A   Clear